Location: Jetmore Motorplex
(37.9889°N, 99.8876°W)
Time: 15:33:03
(UTC+00:00)

ARGOS - Pass Details

Date: 17 February 2020
Orbit: 819 x 835 km, 98.5° (Epoch: 07 April)

Event Time Altitude Azimuth Distance (km) Brightness Sun altitude
Exits shadow 01:57:03 38° 93° (E) 1,251 3.6 -19.9°
Maximum altitude 01:57:55 41° 70° (ENE) 1,198 3.5 -20.1°
Drops below altitude 10° 02:02:57 10° 2° (N) 2,452 5.6 -21.1°
Sets 02:05:26 0° 356° (N) 3,391 6.4 -21.6°
